Regional Weather Roundup
Issued by NWS Charleston, SC

Home | Current Version | Previous Version | Text Only | Print | Product List | Glossary On
Versions: 1 2 3 4 5 6 7 8 9 10 11 12 13 14 15 16 17 18 19 20 21 22 23 24 25 26 27 28 29 30 31 32 33 34 35 36 37 38 39 40 41 42 43 44 45 46 47 48 49 50
000
ASUS42 KCHS 262312
RWRCHS

REGIONAL WEATHER ROUNDUP
NATIONAL WEATHER SERVICE CHARLESTON SC
700 PM EDT MON JUN 26 2017

NOTE: "FAIR" INDICATES FEW OR NO CLOUDS BELOW 12,000 FEET WITH NO
SIGNIFICANT WEATHER AND/OR OBSTRUCTIONS TO VISIBILITY.

NOT ALL STATIONS ARE QUALITY CONTROLLED. USE DATA WITH CAUTION...
ESPECIALLY DEWPOINT OBSERVATIONS.

SCZ027-030-031-034>040-042>050-270000-
...SOUTHEAST SOUTH CAROLINA...

CITY           SKY/WX    TMP DP  RH WIND       PRES   REMARKS
N CHARLESTON   MOSUNNY   83  64  52 NE8       30.02S
WATERFRONT PRK   N/A     84  71  65 E13       30.01F
JOHNS ISLAND   FAIR      82  70  65 E10       30.03R
PINOPOLIS        N/A     82  64  54 CALM      29.96F
MONCKS CORNER  FAIR      81  61  50 NE5       30.03S
SUMMERVILLE    FAIR      81  64  57 N3        30.04S
BEAUFORT MCAS  PTSUNNY   83  74  74 SE5       30.02S
BEAUFORT ARPT  NOT AVBL
HILTON HEAD IS NOT AVBL
WALTERBORO     CLEAR     81  64  57 E5        30.04S
ALLENDALE      FAIR      82  64  54 CALM      30.03S

...SOUTHERN MIDLANDS AND PEE DEE...

CITY           SKY/WX    TMP DP  RH WIND       PRES   REMARKS
GEORGETOWN     FAIR      81  59  47 E3        30.04F
KINGSTREE      FAIR      82  57  42 CALM      30.03S
ORANGEBURG     SUNNY     83  57  41 VRB3      30.04S
BARNWELL       FAIR      84  61  45 E5        30.04S
AIKEN          NOT AVBL
MANNING        FAIR      82  64  54 S13G21    30.03S
COLUMBIA       MOSUNNY   87  53  31 N6        30.02S
SUMTER         SUNNY     85  55  35 NE3       30.01S
FLORENCE       SUNNY     86  53  32 N5        30.03S
MYRTLE BEACH   SUNNY     81  63  54 S9        30.04R
N MYRTLE BEACH SUNNY     80  62  54 S6        30.03R

$$

GAZ063-065-086>088-099>101-113>116-118-119-134>141-150-270000-
...SOUTHEAST GEORGIA...

CITY           SKY/WX    TMP DP  RH WIND       PRES   REMARKS
SAVANNAH ARPT  PTSUNNY   83  70  64 E8        30.03S
HUNTER AAF     PTSUNNY   81  75  81 E9        30.01R
FORT STEWART   PTSUNNY   78  74  88 E3        30.01S
STATESBORO     SUNNY     84  68  59 NE5       30.03S
SYLVANIA       CLEAR     84  71  65 E3        30.04F
CLAXTON        FAIR      83  69  63 N7        30.02S

...CSRA...CENTRAL AND FAR SOUTHEAST GEORGIA...

CITY           SKY/WX    TMP DP  RH WIND       PRES   REMARKS
THOMSON        SUNNY     83  57  40 SE5       30.09F
AUGUSTA-BUSH   MOSUNNY   86  60  41 SE3       30.02S
AUGUSTA-DANIEL SUNNY     87  55  33 NE6       30.04S
SWAINSBORO     FAIR      84  61  45 NE6       30.04S
VIDALIA        SUNNY     86  70  58 E8        30.03S HX  90
EASTMAN        FAIR      86  49  27 NE8       30.05S
HAZLEHURST     FAIR      86  70  58 NE8       30.01R HX  90
ALMA           CLOUDY    81  70  69 E6        30.01R
WAYCROSS       CLOUDY    78  77  96 SE7       30.02R
JESUP          FAIR      75  70  83 CALM      30.03R
BAXLEY         PTSUNNY   82  77  83 SE7       30.02R HX  91
BRUNSWICK      HVY RAIN  79  77  94 NE3       30.04R
SAINT SIMONS   CLOUDY    80  75  84 NE5       30.03R

$$

SCZ027-028-034-036>038-045-046-048>050-GAZ119-141-270000-
...LAKE AND SUPPLEMENTAL COASTAL OBSERVATIONS...

STATION/POSITION TIME  TEMP    WIND        PRES    WAVE   SWELL
                       AIR SEA DIR/SP/G            HT/PER HT/PER/DIR
                 (UTC) (F)     (DEG/KT/KT) (MB)    (FT/S) (FT/S/D)
WINYAH BAY       2145   81      70/  8     1017.0
LAKE MURRAY      2220   84     260/  2/  5 1015.9
ACE BASIN NERRS  2145   84      30/  1     1017.0
FORT PULASKI     2242   80 84  100/ 13/ 15 1017.1S
SAPELO ISLAND    2200   76      50/ 10     1017.0

$$

ANZ835-935-AMZ111-154-330-350-352-354-370-450-454-472-270000-
...C-MAN AND BUOY OBSERVATIONS...

STATION/POSITION TIME  TEMP    WIND        PRES    WAVE   SWELL
                       AIR SEA DIR/SP/G            HT/PER HT/PER/DIR
                 (UTC) (F)     (DEG/KT/KT) (MB)    (FT/S) (FT/S/D)
BUOY 41004       2250   79 81   30/ 12/ 16 1016.1F   3/ 5   2/150/ 7
BUOY 41008       2150   79 82   90/  8/  8 1016.5    2/ 8   2/130/ 8
FOLLY BEACH CMAN 2300   81      80/ 12/ 14 1017.5R
CAPERS NEARSHORE 2208   85 83   80/ 12/ 16 1016.7F
FRIPP NEARSHORE  2208   81 83   80/ 16/ 19 1016.3F


STATION/POSITION TIME  TEMP    WIND        PRES    WAVE   SWELL
                       AIR SEA DIR/SP/G            HT/PER HT/PER/DIR
                 (UTC) (F)     (DEG/KT/KT) (MB)    (FT/S) (FT/S/D)
5E ST. MARYS GA  2230      81                N/A     2/ 7
FRYING PAN BUOY  2250   79 81   20/ 10/ 12 1016.3R   3/ 4   2/160/ 5
BUOY 41025       2250   78 81  230/  6/  8 1016.5F   2/ 8   2/120/ 8
CAPE LOOKOUT NC  2300   78     110/  4/  5 1016.3R
BUOY 41002       2150   78 80   30/  4/  4 1017.3    3/ 5   3/260/ 5
BUOY 41010       2250   83 84  160/  4/  6 1015.8F   3/ 8   2/130/ 8
ST AUGUSTINE FL  2300   74 79  340/ 12/ 13 1017.5R


$$



USA.gov is the U.S. government's official web portal to all federal, state and local government web resources and services.